{"data":{"norad_id":58823,"epoch":"2026-09-22T22:12:58.028832Z","epoch_age_seconds":40306,"freshness":"FRESH","line1":"1 58823U 24016D   26265.92567163  .00046568  00000+0  57571-3 0  9995","line2":"2 58823  97.4281 359.8274 0005223  78.3798 281.8045 15.59978360148971","mean_motion":15.5997836,"eccentricity":0.0005223,"inclination_deg":97.4281,"raan_deg":359.8274,"arg_perigee_deg":78.3798,"mean_anomaly_deg":281.8045,"bstar":0.00057571,"rev_number":14897,"period_min":92.308972798828,"perigee_km":384.18584369612,"apogee_km":391.25345755336,"semimajor_km":6765.8566506247,"source":"CELESTRAK","updated_at":"2026-09-23T09:00:19.006164Z"}}